Flag for U.S.A. Weather past 2 weeks in Cincinnati, Ohio, U.S.A.

Now
49 °F

Sunny.


Feels Like: 46 °F
Forecast: 43 / 74 °F
Wind: 6 mph from Southwest

Location: Cincinnati Municipal Airport Lunken Field

Current Time: May 22, 2015 at 9:04:23 AM

Latest Report: May 22, 2015 at 7:53 AM


Visibility: 10 mi

Pressure: 30.21 "Hg

Humidity: 90%

Dew point: 46 °F

Location of CincinnatiLocation

Historic Weather in Cincinnati — Graph

°F

Cincinnati temperature yesterday

Maximum temperature yesterday: 58 °F (at 4:53 PM)
Minimum temperature yesterday: 44 °F (at 11:53 PM)
Average temperature yesterday: 53 °F

Past Weeks' High & Low Weather Summary

 TemperatureHumidityPressure
High86 °F (May 7, 2:53 PM)100% (May 7, 7:53 AM)30.42 "Hg (May 7, 7:53 AM)
Low40 °F (May 22, 2:53 AM)38% (May 8, 3:53 PM)29.86 "Hg (May 11, 5:53 PM)
Average65 °F74%30.11 "Hg
* Reported May 7 7:53 AM — May 22 7:53 AM, Cincinnati, Weather by CustomWeather, © 2015

Note: Actual official high and low records may vary slightly from our data, if they occured in-between our weather recording intervals... More about our weather records

Advertising

Cincinnati weather history for previous 24 hours

 ConditionsComfort  
Time TempWeatherWind HumidityBarometerVisibility
7:53 AM
Fri, May 22
49 °FSunny.6 mph90%30.21 "Hg10 mi
6:53 AM43 °FClear.6 mph97%30.20 "Hg10 mi
5:53 AM40 °FClear.6 mph100%30.19 "Hg8 mi
4:53 AM40 °FClear.No wind100%30.16 "Hg8 mi
3:53 AM40 °FFog.No wind100%30.15 "Hg6 mi
2:53 AM40 °FClear.No wind100%30.15 "Hg7 mi
1:53 AM41 °FClear.No wind96%30.14 "Hg8 mi
12:53 AM43 °FClear.No wind93%30.15 "Hg10 mi
11:53 PM
Thu, May 21
44 °FClear.No wind93%30.15 "Hg10 mi
10:53 PM45 °FClear.No wind90%30.14 "Hg10 mi
9:53 PM46 °FClear.No wind86%30.11 "Hg10 mi
8:53 PM55 °FSunny.7 mph59%30.10 "Hg10 mi
7:53 PM57 °FSunny.7 mph55%30.09 "Hg10 mi
6:53 PM58 °FOvercast.6 mph56%30.09 "Hg10 mi
5:53 PM57 °FMostly cloudy.9 mph58%30.09 "Hg10 mi
4:53 PM58 °FMore clouds than sun.12 mph51%30.10 "Hg10 mi
3:53 PM57 °FOvercast.9 mph51%30.09 "Hg10 mi
2:53 PM57 °FMostly cloudy.8 mph53%30.07 "Hg10 mi
1:53 PM57 °FMostly cloudy.8 mph60%30.06 "Hg10 mi
12:53 PM54 °FMostly cloudy.9 mph69%30.06 "Hg10 mi
11:53 AM55 °FMostly cloudy.8 mph67%30.06 "Hg10 mi
10:53 AM54 °FMostly cloudy.5 mph69%30.06 "Hg10 mi
9:53 AM53 °FMostly cloudy.5 mph74%30.06 "Hg10 mi
Weather by CustomWeather, © 2015

See weather overviewHow to use our weather pages